DateTimeUTC,F1_A11,F1_S11,BsB_S11,BsG_S11,BsR_S11,BbsB_S11,BbsG_S11,BbsR_S11,BaB_A11,BaG_A11,BaR_A11,Tu_S11,T_S11,Uu_S11,U_S11,P_S11,T1_A11
2021-02-14T14:00:00Z,00000200,21000000,,,,,,,0000.24,0000.54,0000.30,17.4,23.8,01.2,00.8,0650.3,31.1
2021-02-14T14:01:00Z,00000200,21000000,,,,,,,-000.22,-000.16,-000.20,17.3,23.8,01.2,00.8,0650.3,31.1
2021-02-14T14:02:00Z,00000200,21000000,,,,,,,-000.04,-000.21,0000.12,17.3,23.8,01.2,00.8,0650.3,31.0
2021-02-14T14:03:00Z,00000200,61000000,,,,,,,0000.05,0000.47,0000.03,17.3,23.8,01.2,00.8,0650.3,31.0
2021-02-14T14:04:00Z,00000200,41000000,0000.52,0000.27,0000.23,0000.03,0000.18,-000.35,-000.03,0000.03,0000.20,17.4,23.6,01.2,00.8,0651.2,31.0
2021-02-14T14:05:00Z,00000200,01000000,0000.44,0000.21,-000.28,-000.11,-000.18,0000.21,0000.54,0000.21,0000.18,17.4,23.5,01.3,00.9,0651.2,31.0
2021-02-14T14:06:00Z,00000200,01000000,0000.47,0000.48,0000.10,0000.43,0000.13,0000.16,0000.12,0000.01,0000.29,17.5,23.5,01.2,00.9,0651.3,31.1
2021-02-14T14:07:00Z,00000200,01000000,0000.62,-000.07,0000.09,0000.42,-000.25,0000.23,-000.03,0000.12,0000.04,17.6,23.6,01.3,00.9,0651.3,31.1
2021-02-14T14:08:00Z,00000200,01000000,0000.52,0000.25,0000.33,-000.22,-000.05,0000.30,0000.56,0000.20,0000.25,17.7,23.6,01.3,00.9,0651.2,31.1
2021-02-14T14:09:00Z,00000200,01000000,0000.79,0000.25,0000.29,0000.28,-000.14,0000.38,-000.05,0000.75,-000.05,17.7,23.6,01.3,00.9,0651.1,31.1
2021-02-14T14:10:00Z,00000200,01000000,0000.29,0000.18,0000.33,-000.22,0000.18,0000.18,0000.07,-000.20,0000.03,17.7,23.6,01.3,00.9,0651.1,31.1
2021-02-14T14:11:00Z,00000200,01000000,0000.46,-000.05,0000.01,0000.05,-000.02,-000.08,0000.10,-000.27,-000.15,17.7,23.6,01.4,01.0,0651.1,31.0
2021-02-14T14:12:00Z,00000200,01000000,0000.81,0000.22,0000.12,0000.52,0000.08,-000.15,0000.26,0000.46,0000.37,17.6,23.6,01.4,00.9,0651.1,31.1
2021-02-14T14:13:00Z,00000200,01000000,0000.46,0000.08,0000.19,0000.05,0000.10,0000.10,-000.05,-000.13,0000.11,17.6,23.6,01.4,00.9,0651.1,31.1
2021-02-14T14:14:00Z,00000200,01000000,0000.82,0000.01,0000.17,-000.23,-000.03,0000.37,0000.05,0000.15,0000.13,17.6,23.6,01.3,00.9,0651.2,31.1
2021-02-14T14:15:00Z,00000200,01000000,0001.08,0000.04,0000.26,0000.02,0000.22,0000.29,0000.25,0000.21,0000.20,17.6,23.6,01.4,00.9,0651.1,31.1
2021-02-14T14:16:00Z,00000200,01000000,0000.34,-000.10,0000.08,0000.26,0000.02,0000.32,0000.38,0000.20,0000.44,17.6,23.6,01.3,00.9,0651.0,31.0
2021-02-14T14:17:00Z,00000200,01000000,0000.61,-000.10,0000.13,0000.18,-000.10,0000.12,-000.04,-000.08,-000.31,17.6,23.6,01.3,00.9,0651.0,31.0
2021-02-14T14:18:00Z,00000200,01000000,0001.02,-000.06,-000.02,0000.17,-000.34,-000.06,0000.05,0000.03,-000.14,17.5,23.5,01.4,01.0,0651.0,31.0
2021-02-14T14:19:00Z,00000200,01000000,0000.44,0000.20,0000.35,-000.50,-000.11,0000.29,0000.04,0000.02,0000.06,17.5,23.5,01.4,00.9,0651.0,31.0
2021-02-14T14:20:00Z,00000200,01000000,0000.25,-000.22,0000.47,0000.15,0000.05,0000.28,0000.49,0000.18,0000.38,17.5,23.5,01.4,00.9,0651.1,31.0
2021-02-14T14:21:00Z,00000200,01000000,0000.50,0000.34,0000.14,0000.20,-000.04,0000.12,-000.22,0000.04,0000.08,17.6,23.5,01.4,00.9,0650.9,31.0
2021-02-14T14:22:00Z,00000200,01000000,0000.50,0000.08,0000.14,0000.59,-000.04,0000.24,0000.14,0000.21,0000.10,17.6,23.5,01.4,00.9,0650.9,31.1
2021-02-14T14:23:00Z,00000200,01000000,0000.79,0000.05,0000.17,-000.29,-000.19,0000.30,0000.09,0000.07,-000.03,17.6,23.6,01.4,01.0,0650.8,31.0
2021-02-14T14:24:00Z,00000200,01000000,0000.49,0000.08,-000.08,0000.17,-000.23,0000.14,-000.23,0000.07,0000.24,17.6,23.6,01.3,00.9,0650.9,31.1
2021-02-14T14:25:00Z,00000200,01000000,0000.85,0000.46,0000.14,-000.29,-000.11,0000.19,0000.28,0000.20,-000.36,17.6,23.6,01.4,00.9,0650.8,31.1
2021-02-14T14:26:00Z,00000200,01000000,0000.25,0000.32,0000.21,-000.19,-000.24,0000.18,0000.15,-000.24,0000.10,17.6,23.5,01.4,01.0,0650.9,31.0
2021-02-14T14:27:00Z,00000200,01000000,0001.10,0000.36,0000.18,-000.02,-000.26,0000.22,-000.23,0000.41,0000.12,17.6,23.5,01.3,00.9,0650.8,31.1
2021-02-14T14:28:00Z,00000200,01000000,0000.55,0000.24,0000.18,0000.84,0000.21,0000.34,0000.29,-000.18,0000.08,17.6,23.5,01.3,00.9,0650.8,31.0
2021-02-14T14:29:00Z,00000200,01000000,0000.75,0000.05,0000.42,-000.33,0000.40,0000.14,0000.01,0000.22,-000.05,17.6,23.5,01.4,00.9,0650.9,31.0
2021-02-14T14:30:00Z,00000200,01000000,0000.94,-000.10,0000.48,-000.42,-000.09,0000.19,0000.12,0000.19,0000.73,17.5,23.5,01.3,00.9,0650.9,31.0
2021-02-14T14:31:00Z,00000200,01000000,0000.34,0000.31,0000.25,0000.10,0000.26,0000.00,0000.08,0000.24,-000.09,17.5,23.5,01.3,00.9,0650.8,31.0
2021-02-14T14:32:00Z,00000200,01000000,0000.39,0000.32,0000.15,-000.14,-000.32,0000.21,0000.44,-000.08,-000.13,17.5,23.5,01.3,00.9,0650.8,31.0
2021-02-14T14:33:00Z,00000200,01000000,0000.10,0000.05,0000.65,-000.48,0000.08,0000.54,-000.00,0000.24,-000.07,17.5,23.5,01.4,00.9,0650.8,31.0
2021-02-14T14:34:00Z,00000200,01000000,0000.43,0000.28,0000.14,0000.31,0000.05,0000.14,-000.02,-000.06,0000.10,17.5,23.5,01.3,00.9,0650.8,31.0
2021-02-14T14:35:00Z,00000200,01000000,0000.96,0000.40,0000.06,0000.06,-000.02,0000.37,0000.07,-000.12,0000.36,17.5,23.4,01.3,00.9,0650.8,31.0
2021-02-14T14:36:00Z,00000200,01000000,0000.27,0000.37,0000.10,0000.00,-000.21,0000.03,0000.31,0000.52,0000.08,17.5,23.5,01.4,00.9,0650.7,31.0
2021-02-14T14:37:00Z,00000200,01000000,0000.52,0000.46,0000.24,0000.32,0000.03,0000.19,0000.33,0000.22,0000.45,17.6,23.5,01.3,00.9,0650.6,31.1
2021-02-14T14:38:00Z,00000200,01000000,0000.54,0000.23,0000.34,0000.01,-000.10,0000.10,0000.05,0000.73,0000.21,17.7,23.6,01.4,01.0,0650.6,31.1
2021-02-14T14:39:00Z,00000200,01000000,0000.70,0000.43,0000.46,0000.09,-000.31,0000.15,0000.37,-000.44,-000.10,17.8,23.6,01.3,00.9,0650.6,31.1
2021-02-14T14:40:00Z,00000200,01000000,0000.58,0000.35,0000.18,-000.30,-000.09,-000.04,0000.02,0000.46,0000.13,17.9,23.6,01.4,01.0,0650.6,31.1
2021-02-14T14:41:00Z,00000200,01000000,-000.07,0000.28,0000.35,0000.29,-000.14,0000.19,0000.14,-000.03,-000.09,17.9,23.7,01.3,00.9,0650.7,31.1
2021-02-14T14:42:00Z,00000200,01000000,0000.95,0000.29,-000.03,-000.07,-000.08,-000.01,-000.05,0000.08,0000.16,17.9,23.6,01.3,00.9,0650.6,31.1
2021-02-14T14:43:00Z,00000200,01000000,0000.79,0000.09,0000.07,0000.18,0000.05,0000.08,0000.27,-000.23,0000.28,17.8,23.7,01.3,00.9,0650.7,31.1
2021-02-14T14:44:00Z,00000200,01000000,0000.52,-000.02,0000.19,-000.11,-000.01,0000.28,0000.15,-000.09,-000.45,17.8,23.6,01.3,00.9,0650.6,31.1
2021-02-14T14:45:00Z,00000200,01000000,0000.39,0000.04,0000.26,0000.59,-000.10,0000.02,0000.06,0000.56,0000.12,17.8,23.6,01.3,00.9,0650.7,31.1
2021-02-14T14:46:00Z,00000200,01000000,0000.01,0000.09,0000.22,0000.05,0000.06,0000.13,0000.06,-000.15,0000.45,17.7,23.6,01.3,00.9,0650.6,31.1
2021-02-14T14:47:00Z,00000200,01000000,0001.44,0000.21,0000.41,-000.07,0000.02,0000.42,-000.04,0000.16,-000.19,17.7,23.6,01.4,01.0,0650.6,31.1
2021-02-14T14:48:00Z,00000200,01000000,0000.93,0000.13,0000.26,-000.11,-000.03,0000.32,0000.14,0000.10,0000.03,17.7,23.6,01.4,00.9,0650.6,31.1
2021-02-14T14:49:00Z,00000200,01000000,0000.05,0000.31,0000.32,0000.13,-000.23,0000.25,0000.22,0000.01,0000.19,17.6,23.6,01.4,01.0,0650.7,31.0
2021-02-14T14:50:00Z,00000200,01000000,0000.03,0000.29,0000.00,0000.11,0000.22,0000.32,0000.23,-000.02,0000.21,17.6,23.6,01.3,00.9,0650.5,31.0
2021-02-14T14:51:00Z,00000200,01000000,0000.86,0000.15,0000.09,-000.39,0000.10,0000.37,0000.10,0000.20,0000.07,17.7,23.6,01.4,01.0,0650.7,31.0
2021-02-14T14:52:00Z,00000200,01000000,0000.05,0000.10,0000.32,-000.15,-000.10,0000.28,0000.14,0000.30,0000.24,17.7,23.6,01.4,00.9,0650.7,31.1
2021-02-14T14:53:00Z,00000200,01000000,0000.53,-000.13,0000.17,0000.39,-000.15,0000.16,0000.09,0000.22,0000.01,17.7,23.6,01.4,01.0,0650.7,31.0
2021-02-14T14:54:00Z,00000200,01000000,0000.57,0000.22,0000.24,-000.19,-000.03,0000.45,0000.23,0000.24,0000.26,17.7,23.6,01.4,00.9,0650.7,31.0
2021-02-14T14:55:00Z,00000200,01000000,0000.16,0000.24,-000.03,0000.25,-000.04,0000.01,0000.05,0000.01,0000.12,17.7,23.6,01.3,00.9,0650.6,31.0
2021-02-14T14:56:00Z,00000200,01000000,0001.27,0000.22,0000.39,0000.47,0000.03,0000.14,0000.25,0000.35,0000.22,17.7,23.6,01.3,00.9,0650.6,31.1
2021-02-14T14:57:00Z,00000200,41000000,,,,,,,-000.24,-000.04,0000.02,17.7,23.6,01.4,01.0,0651.0,31.0
2021-02-14T14:58:00Z,00000200,61000000,,,,,,,0000.25,-000.08,-000.04,17.4,23.7,01.3,00.9,0649.9,31.0
2021-02-14T14:59:00Z,00000200,21000000,,,,,,,-000.17,0000.04,-000.51,17.4,23.8,01.2,00.8,0649.8,31.0
